| time (UTC) | temp C | wind direction | speed KPH | gust KPH | rain 1hr cm | rain 24hr cm | rain mn cm | humidity % | barometer mb |
| 20260504081705 | 16 | 229 | 3.2 | 9.7 | 0.00 | 0.05 | 0.00 | 77 | 1011.9 |
| 20260504081205 | 16 | 229 | 3.2 | 8.0 | 0.00 | 0.05 | 0.00 | 78 | 1011.9 |
| 20260504080705 | 16 | 227 | 3.2 | 8.0 | 0.00 | 0.05 | 0.00 | 79 | 1011.8 |
| 20260504070205 | 15 | 211 | 1.6 | 8.0 | 0.00 | 0.05 | 0.00 | 81 | 1011.5 |
| 20260504060207 | 13 | 210 | 1.6 | 6.4 | 0.00 | 0.05 | 0.00 | 82 | 1011.1 |
| 20260504050705 | 11 | 176 | 0.0 | 0.0 | 0.00 | 0.05 | 0.00 | 83 | 1010.7 |
| 20260504050206 | 11 | 176 | 0.0 | 0.0 | 0.00 | 0.05 | 0.00 | 83 | 1010.7 |
| 20260504045705 | 11 | 176 | 0.0 | 0.0 | 0.00 | 0.05 | 0.00 | 83 | 1010.7 |
| 20260504045205 | 11 | 176 | 0.0 | 0.0 | 0.00 | 0.05 | 0.00 | 83 | 1010.6 |
| 20260504044705 | 11 | 176 | 0.0 | 0.0 | 0.00 | 0.05 | 0.00 | 83 | 1010.6 |
| 20260504044205 | 11 | 176 | 0.0 | 0.0 | 0.00 | 0.05 | 0.00 | 83 | 1010.5 |
| 20260504043706 | 11 | 176 | 0.0 | 0.0 | 0.00 | 0.05 | 0.00 | 83 | 1010.5 |
| 20260504042206 | 11 | 176 | 0.0 | 1.6 | 0.00 | 0.05 | 0.00 | 83 | 1010.6 |
| 20260504041705 | 11 | 176 | 0.0 | 1.6 | 0.00 | 0.05 | 0.00 | 83 | 1010.5 |
| 20260504041205 | 12 | 176 | 0.0 | 1.6 | 0.00 | 0.05 | 0.00 | 83 | 1010.6 |
| 20260504040705 | 12 | 176 | 0.0 | 1.6 | 0.00 | 0.05 | 0.00 | 83 | 1010.5 |
| 20260504040205 | 12 | 176 | 0.0 | 4.8 | 0.00 | 0.05 | 0.00 | 83 | 1010.5 |
| 20260504035705 | 12 | 176 | 0.0 | 4.8 | 0.00 | 0.05 | 0.00 | 83 | 1010.5 |
| 20260504035205 | 12 | 176 | 0.0 | 4.8 | 0.00 | 0.05 | 0.00 | 83 | 1010.5 |
| 20260504034205 | 12 | 176 | 0.0 | 4.8 | 0.00 | 0.05 | 0.00 | 83 | 1010.6 |
| 20260504033707 | 12 | 176 | 0.0 | 4.8 | 0.00 | 0.05 | 0.00 | 83 | 1010.6 |
| 20260504033206 | 12 | 176 | 0.0 | 3.2 | 0.00 | 0.05 | 0.00 | 83 | 1010.6 |
| 20260504032708 | 12 | 176 | 0.0 | 4.8 | 0.00 | 0.05 | 0.00 | 83 | 1010.6 |
| 20260504032205 | 12 | 176 | 0.0 | 4.8 | 0.00 | 0.05 | 0.00 | 83 | 1010.5 |
| 20260504031706 | 12 | 176 | 0.0 | 4.8 | 0.00 | 0.05 | 0.00 | 83 | 1010.5 |
| 20260504030706 | 12 | 176 | 0.0 | 4.8 | 0.00 | 0.05 | 0.00 | 83 | 1010.5 |
| 20260504025705 | 12 | 176 | 0.0 | 4.8 | 0.00 | 0.05 | 0.00 | 83 | 1010.3 |
| 20260504025205 | 12 | 176 | 0.0 | 4.8 | 0.00 | 0.05 | 0.00 | 83 | 1010.3 |
| 20260504024705 | 12 | 176 | 0.0 | 12.9 | 0.00 | 0.05 | 0.00 | 83 | 1010.4 |
| 20260504024205 | 12 | 176 | 1.6 | 12.9 | 0.00 | 0.05 | 0.00 | 83 | 1010.4 |
| 20260504023705 | 12 | 176 | 1.6 | 12.9 | 0.00 | 0.05 | 0.00 | 83 | 1010.4 |
| 20260504022705 | 12 | 176 | 1.6 | 4.8 | 0.00 | 0.05 | 0.00 | 83 | 1010.6 |
| 20260504022205 | 12 | 176 | 0.0 | 3.2 | 0.00 | 0.05 | 0.00 | 83 | 1010.5 |
| 20260504021705 | 12 | 176 | 0.0 | 0.0 | 0.00 | 0.05 | 0.00 | 83 | 1010.5 |
| 20260504021205 | 12 | 176 | 0.0 | 0.0 | 0.00 | 0.05 | 0.00 | 83 | 1010.5 |
| 20260504020707 | 12 | 176 | 0.0 | 0.0 | 0.00 | 0.05 | 0.00 | 83 | 1010.5 |
| 20260504015705 | 12 | 176 | 0.0 | 0.0 | 0.00 | 0.05 | 0.00 | 82 | 1010.5 |
| 20260504015205 | 12 | 176 | 0.0 | 0.0 | 0.00 | 0.05 | 0.00 | 82 | 1010.5 |
| 20260504014205 | 12 | 176 | 0.0 | 3.2 | 0.00 | 0.05 | 0.00 | 82 | 1010.5 |
| 20260504013705 | 12 | 176 | 0.0 | 3.2 | 0.00 | 0.05 | 0.00 | 82 | 1010.5 |
| 20260504013205 | 13 | 176 | 0.0 | 1.6 | 0.00 | 0.05 | 0.00 | 82 | 1010.5 |
| 20260504012705 | 13 | 176 | 0.0 | 1.6 | 0.00 | 0.08 | 0.00 | 82 | 1010.5 |
| 20260504012205 | 13 | 176 | 0.0 | 1.6 | 0.00 | 0.08 | 0.00 | 82 | 1010.5 |
| 20260504011704 | 13 | 176 | 0.0 | 1.6 | 0.00 | 0.08 | 0.00 | 82 | 1010.5 |
| 20260504011205 | 13 | 176 | 0.0 | 6.4 | 0.00 | 0.08 | 0.00 | 82 | 1010.5 |
| 20260504010706 | 13 | 176 | 0.0 | 6.4 | 0.00 | 0.08 | 0.00 | 82 | 1010.5 |
| 20260504010205 | 13 | 176 | 1.6 | 6.4 | 0.00 | 0.08 | 0.00 | 82 | 1010.5 |
| 20260504005705 | 13 | 176 | 1.6 | 6.4 | 0.00 | 0.08 | 0.00 | 82 | 1010.5 |
| 20260504005205 | 13 | 176 | 1.6 | 8.0 | 0.00 | 0.08 | 0.00 | 82 | 1010.5 |
| 20260504004706 | 13 | 176 | 1.6 | 8.0 | 0.00 | 0.08 | 0.00 | 82 | 1010.5 |
| 20260504004207 | 13 | 176 | 1.6 | 8.0 | 0.00 | 0.08 | 0.00 | 82 | 1010.4 |
| 20260504003705 | 13 | 176 | 1.6 | 4.8 | 0.00 | 0.08 | 0.00 | 82 | 1010.3 |
| 20260504003205 | 13 | 176 | 0.0 | 4.8 | 0.00 | 0.08 | 0.00 | 82 | 1010.4 |
| 20260504002706 | 13 | 176 | 0.0 | 4.8 | 0.00 | 0.08 | 0.00 | 82 | 1010.3 |
| 20260504002205 | 13 | 176 | 0.0 | 3.2 | 0.00 | 0.08 | 0.00 | 82 | 1010.4 |
| 20260504001705 | 13 | 176 | 0.0 | 3.2 | 0.00 | 0.08 | 0.00 | 82 | 1010.4 |
| 20260504001206 | 13 | 176 | 0.0 | 8.0 | 0.00 | 0.08 | 0.00 | 82 | 1010.5 |
| 20260504000205 | 13 | 176 | 1.6 | 8.0 | 0.00 | 0.10 | 0.00 | 82 | 1010.5 |
| 20260503235706 | 13 | 176 | 1.6 | 8.0 | 0.00 | 0.10 | 0.00 | 82 | 1010.5 |
| 20260503235227 | 13 | 176 | 1.6 | 12.9 | 0.00 | 0.10 | 0.00 | 82 | 1010.5 |
| 20260503234207 | 13 | 176 | 3.2 | 12.9 | 0.00 | 0.10 | 0.00 | 82 | 1010.5 |
| 20260503233708 | 13 | 176 | 3.2 | 11.3 | 0.00 | 0.10 | 0.00 | 82 | 1010.5 |
| 20260503233205 | 13 | 176 | 3.2 | 8.0 | 0.00 | 0.10 | 0.00 | 82 | 1010.5 |
| 20260503232205 | 13 | 176 | 3.2 | 8.0 | 0.00 | 0.10 | 0.00 | 82 | 1010.5 |
| 20260503231205 | 12 | 176 | 0.0 | 4.8 | 0.00 | 0.10 | 0.00 | 82 | 1010.5 |
| 20260503230706 | 13 | 176 | 0.0 | 1.6 | 0.00 | 0.13 | 0.00 | 82 | 1010.6 |
| 20260503230205 | 13 | 176 | 0.0 | 1.6 | 0.00 | 0.13 | 0.00 | 82 | 1010.6 |
| 20260503225705 | 13 | 176 | 0.0 | 1.6 | 0.00 | 0.13 | 0.00 | 82 | 1010.6 |
| 20260503225206 | 13 | 176 | 0.0 | 3.2 | 0.00 | 0.13 | 0.00 | 82 | 1010.7 |
| 20260503224705 | 13 | 176 | 0.0 | 3.2 | 0.00 | 0.13 | 0.00 | 82 | 1010.7 |
| 20260503224206 | 13 | 176 | 0.0 | 6.4 | 0.00 | 0.13 | 0.00 | 82 | 1010.6 |
| 20260503223705 | 13 | 176 | 1.6 | 6.4 | 0.00 | 0.13 | 0.00 | 82 | 1010.6 |
| 20260503223206 | 13 | 176 | 3.2 | 8.0 | 0.00 | 0.13 | 0.00 | 82 | 1010.6 |
| 20260503222706 | 13 | 176 | 3.2 | 8.0 | 0.00 | 0.13 | 0.00 | 82 | 1010.7 |
| 20260503222205 | 13 | 176 | 1.6 | 8.0 | 0.00 | 0.15 | 0.00 | 82 | 1010.6 |
| 20260503221705 | 13 | 176 | 1.6 | 6.4 | 0.00 | 0.15 | 0.00 | 82 | 1010.6 |
| 20260503221205 | 13 | 176 | 1.6 | 3.2 | 0.00 | 0.15 | 0.00 | 82 | 1010.6 |
| 20260503220709 | 13 | 176 | 0.0 | 3.2 | 0.00 | 0.15 | 0.00 | 82 | 1010.6 |
| 20260503220206 | 13 | 176 | 0.0 | 3.2 | 0.00 | 0.15 | 0.15 | 82 | 1010.7 |
| 20260503215705 | 13 | 176 | 0.0 | 4.8 | 0.00 | 0.15 | 0.15 | 82 | 1010.7 |
| 20260503214705 | 13 | 176 | 0.0 | 4.8 | 0.00 | 0.15 | 0.15 | 82 | 1010.9 |
| 20260503213705 | 14 | 176 | 1.6 | 8.0 | 0.00 | 0.15 | 0.15 | 82 | 1011.0 |
| 20260503213205 | 14 | 176 | 3.2 | 8.0 | 0.00 | 0.15 | 0.15 | 82 | 1010.8 |
| 20260503212705 | 14 | 176 | 3.2 | 8.0 | 0.00 | 0.15 | 0.15 | 82 | 1010.8 |
| 20260503212205 | 14 | 176 | 1.6 | 8.0 | 0.00 | 0.15 | 0.15 | 81 | 1010.8 |
| 20260503211705 | 14 | 176 | 1.6 | 6.4 | 0.00 | 0.15 | 0.15 | 81 | 1010.7 |
| 20260503211205 | 14 | 176 | 1.6 | 6.4 | 0.00 | 0.18 | 0.15 | 81 | 1010.8 |
| 20260503210205 | 14 | 176 | 1.6 | 6.4 | 0.00 | 0.18 | 0.15 | 81 | 1010.7 |
| 20260503205705 | 14 | 176 | 1.6 | 8.0 | 0.00 | 0.18 | 0.15 | 81 | 1010.5 |
| 20260503205210 | 15 | 176 | 1.6 | 8.0 | 0.00 | 0.18 | 0.15 | 81 | 1010.5 |
| 20260503204705 | 15 | 176 | 3.2 | 11.3 | 0.00 | 0.18 | 0.15 | 81 | 1010.5 |
| 20260503204205 | 15 | 176 | 3.2 | 11.3 | 0.00 | 0.20 | 0.15 | 81 | 1010.6 |
| 20260503203704 | 15 | 176 | 3.2 | 11.3 | 0.00 | 0.20 | 0.15 | 81 | 1010.6 |
| 20260503203206 | 15 | 172 | 3.2 | 11.3 | 0.00 | 0.20 | 0.15 | 81 | 1010.7 |
| 20260503202205 | 15 | 170 | 3.2 | 9.7 | 0.00 | 0.20 | 0.15 | 81 | 1010.7 |
| 20260503201705 | 15 | 169 | 1.6 | 9.7 | 0.00 | 0.23 | 0.15 | 81 | 1010.7 |
| 20260503201205 | 15 | 169 | 1.6 | 8.0 | 0.00 | 0.23 | 0.15 | 81 | 1010.7 |
| 20260503200706 | 15 | 168 | 3.2 | 11.3 | 0.00 | 0.23 | 0.15 | 81 | 1010.7 |
| 20260503200205 | 15 | 168 | 3.2 | 11.3 | 0.00 | 0.23 | 0.15 | 81 | 1010.7 |
| 20260503195706 | 15 | 168 | 3.2 | 14.5 | 0.00 | 0.23 | 0.15 | 80 | 1010.6 |
| 20260503195205 | 15 | 168 | 3.2 | 14.5 | 0.00 | 0.23 | 0.15 | 80 | 1010.5 |
| 20260503194706 | 15 | 163 | 4.8 | 14.5 | 0.00 | 0.23 | 0.15 | 80 | 1010.4 |
| 20260503194208 | 15 | 160 | 6.4 | 14.5 | 0.00 | 0.23 | 0.15 | 80 | 1010.2 |
| 20260503193705 | 15 | 184 | 6.4 | 14.5 | 0.00 | 0.23 | 0.15 | 81 | 1010.1 |
| 20260503193205 | 15 | 208 | 4.8 | 16.1 | 0.00 | 0.25 | 0.15 | 81 | 1010.1 |
| 20260503192705 | 15 | 204 | 3.2 | 16.1 | 0.00 | 0.25 | 0.15 | 81 | 1010.1 |
| 20260503192205 | 15 | 205 | 4.8 | 16.1 | 0.00 | 0.25 | 0.15 | 81 | 1010.1 |
| 20260503191705 | 15 | 205 | 4.8 | 11.3 | 0.00 | 0.25 | 0.15 | 81 | 1010.2 |
| 20260503191205 | 15 | 221 | 3.2 | 9.7 | 0.00 | 0.28 | 0.15 | 81 | 1010.3 |
| 20260503190706 | 15 | 236 | 3.2 | 17.7 | 0.00 | 0.28 | 0.15 | 81 | 1010.3 |
| 20260503190206 | 15 | 242 | 3.2 | 22.5 | 0.00 | 0.28 | 0.15 | 80 | 1010.3 |
| 20260503185205 | 15 | 243 | 4.8 | 8.0 | 0.00 | 0.30 | 0.15 | 80 | 1010.2 |
| 20260503184706 | 15 | 240 | 3.2 | 14.5 | 0.00 | 0.30 | 0.15 | 80 | 1010.2 |
| 20260503184205 | 15 | 241 | 3.2 | 14.5 | 0.00 | 0.33 | 0.15 | 80 | 1010.2 |
| 20260503183705 | 15 | 241 | 4.8 | 14.5 | 0.00 | 0.33 | 0.15 | 80 | 1010.2 |
| 20260503183205 | 15 | 241 | 4.8 | 12.9 | 0.00 | 0.33 | 0.15 | 80 | 1010.1 |
| 20260503182705 | 15 | 243 | 3.2 | 12.9 | 0.00 | 0.33 | 0.15 | 80 | 1010.1 |
| 20260503182206 | 15 | 243 | 3.2 | 12.9 | 0.00 | 0.36 | 0.15 | 80 | 1010.1 |
| 20260503181705 | 15 | 246 | 3.2 | 12.9 | 0.00 | 0.36 | 0.15 | 80 | 1010.1 |
| 20260503181205 | 15 | 245 | 3.2 | 9.7 | 0.00 | 0.36 | 0.15 | 80 | 1010.1 |
| 20260503180205 | 16 | 263 | 3.2 | 9.7 | 0.00 | 0.41 | 0.15 | 81 | 1010.0 |
| 20260503175705 | 16 | 267 | 3.2 | 9.7 | 0.00 | 0.41 | 0.15 | 81 | 1010.0 |
| 20260503175205 | 16 | 272 | 1.6 | 9.7 | 0.00 | 0.43 | 0.15 | 81 | 1010.0 |
| 20260503174705 | 16 | 281 | 1.6 | 9.7 | 0.00 | 0.43 | 0.15 | 80 | 1009.9 |
| 20260503173705 | 16 | 224 | 3.2 | 11.3 | 0.00 | 0.46 | 0.15 | 80 | 1009.9 |
| 20260503173205 | 16 | 222 | 3.2 | 11.3 | 0.00 | 0.46 | 0.15 | 80 | 1009.9 |
| 20260503172705 | 16 | 223 | 3.2 | 9.7 | 0.00 | 0.48 | 0.15 | 80 | 1009.9 |
| 20260503172205 | 16 | 223 | 3.2 | 11.3 | 0.00 | 0.51 | 0.15 | 80 | 1009.9 |
| 20260503171705 | 16 | 223 | 4.8 | 11.3 | 0.00 | 0.51 | 0.15 | 80 | 1009.8 |
| 20260503170705 | 16 | 218 | 3.2 | 9.7 | 0.00 | 0.56 | 0.15 | 79 | 1009.8 |
| 20260503170205 | 16 | 217 | 3.2 | 17.7 | 0.00 | 0.58 | 0.15 | 79 | 1009.8 |
| 20260503160205 | 16 | 215 | 6.4 | 19.3 | 0.00 | 0.84 | 0.15 | 79 | 1010.0 |
| 20260503150706 | 15 | 216 | 6.4 | 17.7 | 0.03 | 1.09 | 0.15 | 82 | 1010.1 |
| 20260503150205 | 15 | 194 | 6.4 | 17.7 | 0.03 | 1.09 | 0.15 | 82 | 1010.2 |
| 20260503140205 | 15 | 253 | 3.2 | 20.9 | 0.03 | 1.45 | 0.13 | 82 | 1010.6 |
| 20260503131205 | 15 | 225 | 6.4 | 19.3 | 0.00 | 1.83 | 0.10 | 81 | 1010.7 |
| 20260503130706 | 15 | 243 | 6.4 | 19.3 | 0.00 | 1.85 | 0.10 | 81 | 1010.6 |
| 20260503130206 | 15 | 227 | 8.0 | 19.3 | 0.00 | 1.88 | 0.10 | 81 | 1010.6 |
| 20260503120205 | 15 | 223 | 3.2 | 12.9 | 0.00 | 2.01 | 0.10 | 78 | 1010.6 |
| 20260503110705 | 16 | 234 | 6.4 | 16.1 | 0.00 | 2.01 | 0.10 | 65 | 1010.7 |
| 20260503110205 | 16 | 242 | 4.8 | 16.1 | 0.00 | 2.01 | 0.10 | 65 | 1010.7 |